Previsão horária em Abbotsford

Hoje, 26 Janeiro, Terça-feira

Tempo Temperatura Precipitação Vento Pressão Humidade
00:00 +1°C° 0 mm 1 m/s 751 mmHg 89%
01:00 0°C° 0 mm 1 m/s 751 mmHg 88%
02:00 0°C° 0 mm 1 m/s 750 mmHg 87%
03:00 0°C° 0 mm 1 m/s 750 mmHg 86%
04:00 0°C° 0 mm 1 m/s 750 mmHg 85%
05:00 -2°C° 0 mm 2 m/s 749 mmHg 84%
06:00 -2°C° 0 mm 2 m/s 749 mmHg 83%
07:00 -2°C° 0 mm 2 m/s 749 mmHg 82%
08:00 -1°C° 0 mm 2 m/s 748 mmHg 79%
09:00 +1°C° 0 mm 2 m/s 748 mmHg 76%
10:00 +1°C° 0 mm 2 m/s 747 mmHg 72%
11:00 +3°C° 0 mm 2 m/s 747 mmHg 67%
12:00 +3°C° 0 mm 3 m/s 746 mmHg 62%
13:00 +4°C° 0 mm 3 m/s 746 mmHg 58%
14:00 +4°C° 0 mm 3 m/s 745 mmHg 59%
15:00 +3°C° 0 mm 3 m/s 745 mmHg 60%
16:00 +3°C° 0 mm 3 m/s 744 mmHg 62%
17:00 +2°C° 0 mm 3 m/s 744 mmHg 63%
18:00 +2°C° 0 mm 3 m/s 744 mmHg 64%
19:00 +1°C° 0 mm 3 m/s 744 mmHg 65%
20:00 +1°C° 0.1 mm 3 m/s 744 mmHg 67%
21:00 0°C° 0.1 mm 3 m/s 745 mmHg 68%
22:00 0°C° 0.1 mm 3 m/s 745 mmHg 70%
23:00 0°C° 0.2 mm 3 m/s 744 mmHg 71%

Amanhã, 27 Janeiro, Quarta-feira

Tempo Temperatura Precipitação Vento Pressão Humidade
00:00 0°C° 0.2 mm 3 m/s 744 mmHg 72%
01:00 0°C° 0.2 mm 3 m/s 744 mmHg 73%
02:00 0°C° 0.1 mm 3 m/s 744 mmHg 72%
03:00 0°C° 0.1 mm 3 m/s 744 mmHg 71%
04:00 -1°C° 0.1 mm 2 m/s 744 mmHg 70%
05:00 -1°C° 0.1 mm 2 m/s 745 mmHg 72%
06:00 -1°C° 0.1 mm 2 m/s 745 mmHg 74%
07:00 -1°C° 0.1 mm 2 m/s 745 mmHg 75%
08:00 +1°C° 0.1 mm 2 m/s 745 mmHg 75%
09:00 +2°C° 0.1 mm 1 m/s 745 mmHg 74%
10:00 +3°C° 0.1 mm 1 m/s 746 mmHg 74%
11:00 +3°C° 0.2 mm 1 m/s 746 mmHg 76%
12:00 +3°C° 0.2 mm 1 m/s 746 mmHg 78%
13:00 +3°C° 0.2 mm 1 m/s 746 mmHg 80%
14:00 +3°C° 0.1 mm 1 m/s 746 mmHg 81%
15:00 +3°C° 0.1 mm 1 m/s 746 mmHg 83%
16:00 +3°C° 0.1 mm 1 m/s 746 mmHg 85%
17:00 +3°C° 0 mm 1 m/s 747 mmHg 86%
18:00 +2°C° 0 mm 1 m/s 747 mmHg 87%
19:00 -1°C° 0 mm 2 m/s 748 mmHg 88%
20:00 -1°C° 0 mm 2 m/s 748 mmHg 86%
21:00 -1°C° 0 mm 2 m/s 748 mmHg 84%
22:00 -1°C° 0 mm 2 m/s 749 mmHg 82%
23:00 -1°C° 0 mm 2 m/s 749 mmHg 82%

Depois de amanhã, 28 Janeiro, Quinta-feira

Tempo Temperatura Precipitação Vento Pressão Humidade
00:00 -1°C° 0 mm 2 m/s 749 mmHg 82%
01:00 -2°C° 0 mm 2 m/s 749 mmHg 81%
02:00 -2°C° 0 mm 2 m/s 749 mmHg 79%
03:00 -2°C° 0 mm 2 m/s 749 mmHg 77%
04:00 -2°C° 0 mm 2 m/s 749 mmHg 75%
05:00 -2°C° 0 mm 2 m/s 748 mmHg 74%
06:00 -2°C° 0 mm 2 m/s 748 mmHg 73%
07:00 -2°C° 0 mm 2 m/s 748 mmHg 71%
08:00 -1°C° 0 mm 2 m/s 748 mmHg 69%
09:00 +1°C° 0 mm 2 m/s 748 mmHg 67%
10:00 +2°C° 0 mm 2 m/s 749 mmHg 64%
11:00 +3°C° 0.1 mm 1 m/s 749 mmHg 65%
12:00 +4°C° 0.1 mm 1 m/s 748 mmHg 65%
13:00 +4°C° 0.1 mm 1 m/s 748 mmHg 66%
14:00 +4°C° 0.1 mm 1 m/s 748 mmHg 70%
15:00 +4°C° 0.1 mm 1 m/s 748 mmHg 74%
16:00 +4°C° 0.1 mm 1 m/s 748 mmHg 77%
17:00 +3°C° 0 mm 1 m/s 749 mmHg 81%
18:00 +2°C° 0 mm 1 m/s 749 mmHg 85%
19:00 +2°C° 0 mm 1 m/s 750 mmHg 89%
20:00 +1°C° 0 mm 1 m/s 750 mmHg 90%
21:00 +1°C° 0 mm 1 m/s 750 mmHg 90%
22:00 +1°C° 0 mm 1 m/s 750 mmHg 91%
23:00 +1°C° 0 mm 1 m/s 750 mmHg 90%

29 Janeiro, Sexta-feira

Tempo Temperatura Precipitação Vento Pressão Humidade
00:00 +1°C° 0 mm 1 m/s 750 mmHg 88%
01:00 +1°C° 0 mm 1 m/s 750 mmHg 87%
02:00 +1°C° 0.1 mm 1 m/s 750 mmHg 89%
03:00 +1°C° 0.1 mm 1 m/s 750 mmHg 90%
04:00 0°C° 0.1 mm 1 m/s 750 mmHg 92%
05:00 0°C° 0.1 mm 1 m/s 750 mmHg 92%
06:00 0°C° 0.1 mm 1 m/s 750 mmHg 93%
07:00 0°C° 0.1 mm 1 m/s 750 mmHg 93%
08:00 +1°C° 0.3 mm 1 m/s 750 mmHg 93%
09:00 +1°C° 0.3 mm 1 m/s 750 mmHg 92%
10:00 +2°C° 0.3 mm 1 m/s 750 mmHg 91%
11:00 +3°C° 0.1 mm 1 m/s 749 mmHg 91%
12:00 +3°C° 0.1 mm 1 m/s 749 mmHg 90%
13:00 +4°C° 0.1 mm 1 m/s 749 mmHg 90%
14:00 +4°C° 0 mm 1 m/s 748 mmHg 89%
15:00 +4°C° 0 mm 1 m/s 748 mmHg 88%
16:00 +4°C° 0 mm 0 m/s 748 mmHg 87%
17:00 +4°C° 0 mm 1 m/s 748 mmHg 88%
18:00 +3°C° 0 mm 1 m/s 748 mmHg 89%
19:00 +2°C° 0 mm 1 m/s 748 mmHg 90%
20:00 +1°C° 0 mm 2 m/s 748 mmHg 88%
21:00 +1°C° 0 mm 2 m/s 748 mmHg 86%
22:00 +1°C° 0 mm 2 m/s 748 mmHg 84%
23:00 +1°C° 0 mm 2 m/s 747 mmHg 83%

30 Janeiro, Sábado

Tempo Temperatura Precipitação Vento Pressão Humidade
00:00 +1°C° 0 mm 2 m/s 747 mmHg 81%
01:00 +1°C° 0 mm 2 m/s 746 mmHg 80%
02:00 +1°C° 0 mm 2 m/s 746 mmHg 80%
03:00 +1°C° 0 mm 2 m/s 746 mmHg 80%
04:00 +1°C° 0 mm 2 m/s 746 mmHg 81%
05:00 +1°C° 0.3 mm 2 m/s 747 mmHg 84%
06:00 +1°C° 0.3 mm 2 m/s 747 mmHg 88%
07:00 +2°C° 0.3 mm 1 m/s 748 mmHg 91%
08:00 +2°C° 1.4 mm 1 m/s 748 mmHg 92%
09:00 +3°C° 1.4 mm 1 m/s 749 mmHg 94%
10:00 +3°C° 1.4 mm 1 m/s 750 mmHg 95%
11:00 +4°C° 0.4 mm 1 m/s 750 mmHg 93%
12:00 +5°C° 0.4 mm 1 m/s 751 mmHg 90%
13:00 +6°C° 0.4 mm 1 m/s 751 mmHg 87%
14:00 +6°C° 0.1 mm 1 m/s 751 mmHg 89%
15:00 +6°C° 0.1 mm 1 m/s 751 mmHg 91%
16:00 +4°C° 0.1 mm 2 m/s 751 mmHg 92%
17:00 +3°C° 0 mm 2 m/s 751 mmHg 91%
18:00 +3°C° 0 mm 2 m/s 751 mmHg 90%
19:00 +1°C° 0 mm 3 m/s 752 mmHg 88%
20:00 +2°C° 0.2 mm 2 m/s 752 mmHg 89%
21:00 +2°C° 0.2 mm 2 m/s 751 mmHg 89%
22:00 +2°C° 0.2 mm 2 m/s 751 mmHg 90%
23:00 +2°C° 1.3 mm 2 m/s 752 mmHg 93%

31 Janeiro, Domingo

Tempo Temperatura Precipitação Vento Pressão Humidade
00:00 +2°C° 1.3 mm 2 m/s 752 mmHg 95%
01:00 +2°C° 1.3 mm 1 m/s 752 mmHg 98%
02:00 +2°C° 1.2 mm 1 m/s 752 mmHg 98%
03:00 +3°C° 1.2 mm 1 m/s 753 mmHg 98%
04:00 +3°C° 1.2 mm 1 m/s 753 mmHg 98%
05:00 +2°C° 0.3 mm 2 m/s 753 mmHg 97%
06:00 +2°C° 0.3 mm 2 m/s 753 mmHg 97%
07:00 +2°C° 0.3 mm 2 m/s 753 mmHg 96%
08:00 +2°C° 0.1 mm 2 m/s 753 mmHg 95%
09:00 +3°C° 0.1 mm 2 m/s 753 mmHg 95%
10:00 +3°C° 0.1 mm 2 m/s 753 mmHg 94%
11:00 +4°C° 0.1 mm 2 m/s 753 mmHg 95%
12:00 +4°C° 0.1 mm 2 m/s 753 mmHg 95%
13:00 +4°C° 0.1 mm 2 m/s 752 mmHg 96%
14:00 +4°C° 0.4 mm 2 m/s 752 mmHg 96%
15:00 +4°C° 0.4 mm 2 m/s 751 mmHg 97%
16:00 +4°C° 0.4 mm 2 m/s 750 mmHg 97%
17:00 +4°C° 1.4 mm 2 m/s 750 mmHg 97%
18:00 +4°C° 1.4 mm 2 m/s 750 mmHg 97%
19:00 +3°C° 1.4 mm 2 m/s 750 mmHg 97%
20:00 +3°C° 1 mm 2 m/s 750 mmHg 97%
21:00 +3°C° 1 mm 2 m/s 750 mmHg 97%
22:00 +3°C° 1 mm 2 m/s 750 mmHg 97%
23:00 +3°C° 1 mm 2 m/s 750 mmHg 97%
Mostrar mais